[[{"header":{"parameterUnit":"m.s-1","parameterCategory":1,"la1":30.2991,"la2":30.254,"lo1":-89.0895,"lo2":-89.0444,"dy":0.0017,"dx":0.0017,"nx":28,"ny":28,"refTime":"2024-07-06T21:00:00:Z","depth":0,"parameterNumber":2,"parameterNumberName":"U-component_of_WINDS"},"data":[0,0,0,0,0,0,0,0,0,0,0,0,0,0,0,0,0,0,0,0,0,0,0,0,0,0,0,0,0,0,0,0,0,0,0,0,0,0,0,0,0,0,0,0,0,0,0,0,0,0,0,0,0,0,0,0,0,0,-0.4282,-0.4281,0,-0.4204,-0.4203,-0.4202,-0.4148,-0.4147,-0.4147,-0.4147,-0.4063,-0.4062,-0.406,0,0,0,0,0,0,0,0,0,0,0,0,0,-0.4382,-0.4381,-0.4282,-0.4281,-0.428,-0.4204,-0.4203,-0.4202,-0.4148,-0.4147,-0.4147,-0.4147,-0.4064,-0.4062,-0.406,0,0,0,0,0,0,0,0,0,0,0,0,0,-0.4325,-0.438,-0.4282,-0.4244,-0.424,-0.4204,-0.4203,-0.4201,-0.4148,-0.4147,-0.4147,-0.4146,-0.4065,-0.4062,-0.4059,-0.4054,0,0,-0.4051,-0.405,0,0,0,0,0,0,0,0,-0.4328,-0.4321,-0.4251,-0.4247,-0.4242,-0.4185,-0.4207,-0.4152,-0.4148,-0.4183,-0.4147,-0.4146,-0.4104,-0.4098,-0.4085,-0.405,-0.4047,-0.4051,-0.4049,-0.4048,-0.4047,0,0,0,0,0,0,0,-0.4332,-0.4324,-0.4251,-0.425,-0.4244,-0.423,-0.4221,-0.4197,-0.4148,-0.418,-0.4176,-0.4167,-0.4102,-0.4087,-0.4082,-0.4045,-0.4051,-0.4048,-0.4046,-0.4045,-0.4003,-0.4004,0,0,0,0,0,0,-0.4342,-0.4328,-0.4253,-0.4249,-0.4285,-0.4229,-0.4219,-0.4204,-0.4148,-0.4139,-0.4168,-0.4165,-0.4092,-0.4086,-0.4079,-0.407,-0.4048,-0.4045,-0.4044,-0.4002,-0.4003,-0.4004,0,0,0,0,0,0,-0.4345,-0.4336,-0.4257,-0.4287,-0.4276,-0.4228,-0.4211,-0.4203,-0.4188,-0.4139,-0.413,-0.4163,-0.4092,-0.4083,-0.4061,-0.4066,-0.4044,-0.4041,-0.4002,-0.4003,-0.4003,-0.4051,0,0,0,0,0,0,-0.4348,-0.4338,-0.4336,-0.4287,-0.4274,-0.4241,-0.4211,-0.4201,-0.4184,-0.418,-0.4131,-0.4123,-0.4091,-0.4065,-0.4058,-0.4062,-0.4039,-0.4001,-0.4002,-0.4003,-0.4048,-0.4053,-0.4057,0,0,0,0,0,-0.4352,-0.4351,-0.4336,-0.4327,-0.4271,-0.4241,-0.4234,-0.4197,-0.4185,-0.4182,-0.415,-0.4124,-0.4067,-0.4064,-0.4055,-0.4058,-0.4001,-0.4002,-0.4003,-0.4046,-0.4052,-0.4057,0,0,0,0,0,0,-0.44,-0.4344,-0.4326,-0.4311,-0.4281,-0.4232,-0.4228,-0.4204,-0.4177,-0.4174,-0.4129,-0.4119,-0.4101,-0.4077,-0.4075,-0.405,-0.403,-0.403,-0.4066,-0.4071,-0.4075,-0.4081,-0.4037,0,0,0,0,0,-0.4409,-0.439,-0.4342,-0.4333,-0.4319,-0.4276,-0.4261,-0.4236,-0.4204,-0.419,-0.4157,-0.4125,-0.41,-0.4084,-0.4058,-0.4045,-0.4033,-0.4042,-0.4047,-0.405,-0.405,-0.4042,-0.4045,-0.4008,-0.4008,-0.4008,0,0,-0.4427,-0.4394,-0.4385,-0.4341,-0.4316,-0.4296,-0.4266,-0.4246,-0.4232,-0.4187,-0.4165,-0.4139,-0.4101,-0.4083,-0.4074,-0.4063,-0.4058,-0.4052,-0.4055,-0.4053,-0.4043,-0.4047,-0.405,-0.4009,-0.4008,-0.4008,0,0,-0.445,-0.4423,-0.4413,-0.4388,-0.435,-0.4321,-0.4319,-0.4274,-0.4255,-0.4233,-0.4199,-0.418,-0.4137,-0.4112,-0.4093,-0.4107,-0.4082,-0.41,-0.4122,-0.4114,-0.4117,-0.4119,-0.4125,-0.4127,-0.41,-0.41,-0.4101,0,-0.4477,-0.4447,-0.441,-0.4393,-0.4375,-0.4335,-0.4324,-0.4301,-0.4256,-0.4244,-0.4233,-0.4179,-0.415,-0.4127,-0.413,-0.4116,-0.4112,-0.4105,-0.412,-0.4122,-0.4123,-0.4128,-0.413,-0.4103,-0.4103,-0.4102,-0.4102,0,-0.4482,-0.4462,-0.4458,-0.4418,-0.4399,-0.4385,-0.4345,-0.433,-0.4307,-0.428,-0.4257,-0.4221,-0.4188,-0.418,-0.4156,-0.4153,-0.4147,-0.4129,-0.4108,-0.413,-0.4134,-0.4135,-0.4106,-0.4105,-0.4105,-0.4104,0,0,-0.4533,-0.4472,-0.4471,-0.4453,-0.4408,-0.4392,-0.4376,-0.4344,-0.4332,-0.4303,-0.4288,-0.4253,-0.4236,-0.4215,-0.4188,-0.4181,-0.4195,-0.4163,-0.4161,-0.417,-0.4189,-0.4204,-0.4207,-0.4179,-0.4179,-0.4179,-0.4193,0,-0.4549,-0.452,-0.4486,-0.4468,-0.4449,-0.4411,-0.4398,-0.4368,-0.4343,-0.4322,-0.4293,-0.427,-0.4248,-0.4235,-0.4227,-0.4196,-0.4198,-0.4194,-0.4164,-0.4163,-0.4175,-0.4208,-0.4223,-0.4238,-0.4194,-0.4194,-0.4194,0,-0.4564,-0.4538,-0.4518,-0.4476,-0.4467,-0.4455,-0.4424,-0.4405,-0.4371,-0.4353,-0.433,-0.4302,-0.4282,-0.4265,-0.4237,-0.4235,-0.4221,-0.4204,-0.4203,-0.4199,-0.418,-0.4205,-0.4242,-0.4244,-0.4196,-0.4196,-0.4195,0,-0.4603,-0.4563,-0.4546,-0.4531,-0.4481,-0.4474,-0.4453,-0.4418,-0.4402,-0.4374,-0.4363,-0.4332,-0.4316,-0.4293,-0.4257,-0.4248,-0.4234,-0.4213,-0.4218,-0.4219,-0.4216,-0.4217,-0.4252,-0.4207,-0.4207,-0.4207,-0.4207,0,-0.4625,-0.4615,-0.4563,-0.4553,-0.454,-0.4501,-0.4489,-0.4465,-0.4434,-0.4418,-0.4383,-0.4368,-0.4322,-0.4302,-0.4273,-0.4255,-0.4248,-0.4232,-0.4225,-0.4235,-0.4237,-0.4225,-0.4223,-0.4208,-0.4207,-0.4207,-0.4207,0,-0.4667,-0.4632,-0.4611,-0.4566,-0.4555,-0.4547,-0.4508,-0.4497,-0.4469,-0.4449,-0.4442,-0.4399,-0.4373,-0.4335,-0.4297,-0.4278,-0.4265,-0.4253,-0.4277,-0.4272,-0.4279,-0.4279,-0.4307,-0.4309,-0.4264,-0.4265,-0.4265,0,-0.4683,-0.4674,-0.4629,-0.4616,-0.4597,-0.4576,-0.4559,-0.4521,-0.4504,-0.4466,-0.4459,-0.443,-0.4406,-0.4366,-0.4331,-0.4302,-0.4289,-0.4301,-0.4284,-0.4296,-0.4289,-0.4291,-0.429,-0.4305,-0.4306,-0.4306,-0.4307,0,-0.4716,-0.4699,-0.4677,-0.4649,-0.463,-0.4606,-0.458,-0.4571,-0.4527,-0.451,-0.4484,-0.4465,-0.4428,-0.44,-0.4367,-0.4343,-0.4318,-0.4312,-0.4312,-0.4323,-0.4337,-0.433,-0.4288,-0.4312,-0.4311,-0.4311,-0.431,-0.431,-0.4745,-0.4736,-0.4703,-0.4679,-0.4656,-0.4633,-0.462,-0.4591,-0.4569,-0.4537,-0.4515,-0.449,-0.4456,-0.4409,-0.4387,-0.4367,-0.4356,-0.4355,-0.4355,-0.4355,-0.436,-0.4341,-0.436,-0.436,-0.436,-0.436,-0.436,0,-0.4776,-0.4753,-0.4732,-0.4698,-0.4679,-0.4658,-0.4628,-0.4613,-0.4593,-0.4564,-0.4541,-0.4511,-0.4484,-0.4447,-0.4418,-0.4408,-0.4396,-0.4402,-0.4402,-0.4397,-0.4371,-0.4374,-0.4413,-0.4413,-0.4413,-0.4413,-0.4413,-0.4413,-0.479,-0.4774,-0.4753,-0.4725,-0.4702,-0.4678,-0.4663,-0.4641,-0.4618,-0.4587,-0.4565,-0.4542,-0.4509,-0.4477,-0.4452,-0.4441,-0.4432,-0.4442,-0.4428,-0.4404,-0.4399,-0.4395,-0.4398,-0.444,-0.444,-0.4457,-0.4457,-0.4457]},{"header":{"parameterUnit":"m.s-1","parameterCategory":1,"la1":30.2991,"la2":30.254,"lo1":-89.0895,"lo2":-89.0444,"dy":0.0017,"dx":0.0017,"nx":28,"ny":28,"refTime":"2024-07-06T21:00:00:Z","depth":0,"parameterNumber":3,"parameterNumberName":"V-component_of_WINDS"},"data":[0,0,0,0,0,0,0,0,0,0,0,0,0,0,0,0,0,0,0,0,0,0,0,0,0,0,0,0,0,0,0,0,0,0,0,0,0,0,0,0,0,0,0,0,0,0,0,0,0,0,0,0,0,0,0,0,0,0,1.5686,1.5686,0,1.5689,1.5689,1.5689,1.5702,1.5702,1.5702,1.5703,1.5705,1.5705,1.5705,0,0,0,0,0,0,0,0,0,0,0,0,0,1.569,1.569,1.5686,1.5686,1.5686,1.5689,1.5689,1.5689,1.5702,1.5702,1.5703,1.5703,1.5705,1.5705,1.5705,0,0,0,0,0,0,0,0,0,0,0,0,0,1.569,1.569,1.5686,1.5693,1.5693,1.5689,1.5689,1.5689,1.5702,1.5702,1.5703,1.5703,1.5705,1.5705,1.5705,1.5694,0,0,1.5704,1.5704,0,0,0,0,0,0,0,0,1.569,1.569,1.5692,1.5692,1.5693,1.5695,1.5691,1.569,1.5702,1.5699,1.5703,1.5703,1.5702,1.5702,1.5701,1.5694,1.5694,1.5704,1.5704,1.5703,1.5703,0,0,0,0,0,0,0,1.569,1.569,1.5687,1.5692,1.5692,1.5695,1.5696,1.5691,1.5697,1.5699,1.57,1.57,1.5702,1.5701,1.5701,1.5694,1.5704,1.5703,1.5703,1.5703,1.5675,1.5675,0,0,0,0,0,0,1.5689,1.569,1.5687,1.5687,1.5693,1.5695,1.5695,1.5694,1.5698,1.5698,1.57,1.5701,1.5702,1.5702,1.5701,1.5687,1.5703,1.5703,1.5703,1.5676,1.5675,1.5675,0,0,0,0,0,0,1.5689,1.5689,1.5687,1.5689,1.5689,1.5694,1.5693,1.5694,1.5693,1.5698,1.5699,1.5698,1.5702,1.5702,1.5695,1.5687,1.5703,1.5703,1.5677,1.5676,1.5675,1.5659,0,0,0,0,0,0,1.5689,1.5689,1.5685,1.5689,1.5688,1.5681,1.5692,1.5694,1.5693,1.5694,1.5697,1.5698,1.5702,1.5695,1.5695,1.5687,1.5702,1.5677,1.5676,1.5675,1.566,1.5658,1.5656,0,0,0,0,0,1.5689,1.5681,1.5685,1.5684,1.5684,1.568,1.568,1.5686,1.5692,1.5688,1.5691,1.5698,1.5689,1.5695,1.5694,1.5686,1.5678,1.5677,1.5675,1.5661,1.5658,1.5656,0,0,0,0,0,0,1.5676,1.5681,1.5686,1.5678,1.5679,1.5682,1.5677,1.5683,1.5682,1.5683,1.569,1.5691,1.5682,1.5684,1.569,1.5675,1.5684,1.5683,1.5674,1.5671,1.5669,1.5668,1.5702,0,0,0,0,0,1.5673,1.5669,1.5674,1.5667,1.5667,1.5672,1.5671,1.5675,1.5676,1.5676,1.5678,1.5679,1.5676,1.5674,1.5671,1.5661,1.5661,1.5655,1.5653,1.5651,1.5649,1.5642,1.5639,1.5671,1.5671,1.5671,0,0,1.5665,1.5667,1.5665,1.5664,1.5665,1.5661,1.5672,1.5668,1.5664,1.5675,1.5669,1.567,1.5671,1.5662,1.5658,1.5663,1.5641,1.5649,1.5648,1.5647,1.5641,1.5638,1.5635,1.567,1.567,1.567,0,0,1.5648,1.565,1.5643,1.5644,1.5645,1.5648,1.5647,1.5649,1.5651,1.5644,1.5652,1.5648,1.5643,1.5643,1.5642,1.5624,1.5629,1.5623,1.5611,1.5603,1.5601,1.5599,1.5591,1.5588,1.5621,1.5621,1.5621,0,1.5638,1.5632,1.5639,1.5634,1.5632,1.5642,1.5635,1.5635,1.5635,1.5634,1.5639,1.5632,1.5634,1.5624,1.5619,1.5619,1.5616,1.5622,1.5601,1.5599,1.5597,1.5589,1.5586,1.5621,1.5621,1.5621,1.5621,0,1.5619,1.5615,1.5609,1.5609,1.5607,1.5601,1.5606,1.5603,1.5608,1.561,1.5603,1.5604,1.5602,1.56,1.5605,1.559,1.5593,1.56,1.5609,1.5593,1.5585,1.5583,1.5619,1.562,1.562,1.562,0,0,1.5594,1.5597,1.5594,1.5593,1.5595,1.5592,1.5585,1.5583,1.558,1.5579,1.5573,1.5569,1.5574,1.5573,1.5578,1.5572,1.5555,1.5579,1.5579,1.5573,1.5537,1.5531,1.5528,1.5559,1.5559,1.5558,1.5536,0,1.5577,1.5566,1.5571,1.556,1.5555,1.5564,1.5558,1.5558,1.556,1.5556,1.5558,1.5554,1.5563,1.5562,1.5556,1.5558,1.5548,1.556,1.5552,1.5552,1.555,1.5524,1.5518,1.5497,1.5534,1.5533,1.5533,0,1.5556,1.5553,1.5541,1.5542,1.554,1.5535,1.5532,1.5529,1.5528,1.553,1.5528,1.5533,1.5526,1.5537,1.5526,1.5534,1.5531,1.5532,1.5531,1.5529,1.554,1.552,1.5491,1.5487,1.5529,1.5529,1.553,0,1.5536,1.5531,1.5522,1.5522,1.5523,1.5518,1.5519,1.5519,1.5516,1.5514,1.5512,1.5509,1.5507,1.5504,1.5508,1.5515,1.5496,1.5507,1.5496,1.5496,1.5491,1.5491,1.5459,1.5491,1.5491,1.5491,1.5492,0,1.5516,1.5508,1.5514,1.5508,1.5499,1.5505,1.5495,1.5496,1.5496,1.549,1.5498,1.5492,1.5498,1.5493,1.5496,1.5486,1.5486,1.5486,1.5486,1.5484,1.5484,1.5481,1.5482,1.5491,1.5491,1.5491,1.5491,0,1.5493,1.5497,1.5488,1.5489,1.5489,1.5482,1.5483,1.5477,1.548,1.5472,1.5471,1.5474,1.5468,1.5472,1.5467,1.5469,1.5454,1.5458,1.5454,1.5455,1.5443,1.5443,1.5408,1.5402,1.544,1.5439,1.5439,0,1.5479,1.5473,1.5473,1.5469,1.5469,1.5464,1.5461,1.5466,1.5463,1.5461,1.5455,1.545,1.5446,1.5436,1.5437,1.5433,1.5435,1.5423,1.5434,1.5432,1.5433,1.5432,1.5431,1.542,1.542,1.5419,1.5419,0,1.5453,1.5455,1.5451,1.5446,1.5443,1.544,1.5438,1.5434,1.544,1.5435,1.5429,1.5426,1.5419,1.5413,1.5409,1.5409,1.5414,1.5416,1.5412,1.5409,1.5407,1.5406,1.5446,1.5416,1.5416,1.5417,1.5417,1.5417,1.5433,1.5427,1.5426,1.542,1.5419,1.5416,1.5411,1.5412,1.5407,1.5402,1.5405,1.5397,1.5395,1.539,1.5389,1.5382,1.5387,1.5383,1.5382,1.538,1.5378,1.5409,1.5382,1.5382,1.5382,1.5382,1.5382,0,1.5406,1.5405,1.54,1.5396,1.5391,1.5397,1.5395,1.539,1.5383,1.5381,1.5377,1.5368,1.5362,1.5363,1.5357,1.5352,1.5354,1.535,1.5349,1.5349,1.5375,1.5377,1.5348,1.5348,1.5348,1.5348,1.5348,1.5348,1.5391,1.5381,1.5382,1.5371,1.537,1.5362,1.536,1.5357,1.5355,1.5346,1.534,1.5341,1.534,1.5333,1.5328,1.5328,1.5325,1.5319,1.532,1.5344,1.5347,1.535,1.5353,1.5319,1.5319,1.5295,1.5294,1.5294]}]]